This demonstration page uses our WeatherBlox Daily Observations layout. Learn more.

Left ArrowRight Arrow

Hourly Observations for July 22, 2021

Temp ( °F °C ) Dew Point ( °F °C ) Humidity (%) Winds ( mph kmh ) Pressure ( in mb ) Visibility ( mi km ) Precip ( " mm )
12:15 am 00:15 Clear 69 20.8 58 14.6 68 68 SSE 7 11 29.98 1015 10 16 N/A
12:35 am 00:35 Clear 70 21 58 14.6 67 67 SSE 9 15 29.97 1015 10 16 N/A
12:55 am 00:55 Clear 71 21.5 58 14.6 65 65 S 10 17 29.97 1015 10 16 N/A
1:15 am 01:15 Clear 71 21.7 58 14.5 64 64 S 13 20 29.97 1015 10 16 N/A
1:35 am 01:35 Clear 71 21.5 58 14.6 65 65 S 12 19 29.97 1015 10 16 N/A
1:55 am 01:55 Clear 70 21 58 14.6 67 67 S 13 20 29.97 1015 10 16 N/A
2:15 am 02:15 Clear 69 20.7 58 14.6 68 68 S 10 17 29.97 1015 10 16 N/A
2:35 am 02:35 Clear 69 20.5 58 14.6 69 69 S 14 22 29.97 1015 10 16 N/A
2:55 am 02:55 Clear 68 20 58 14.6 71 71 S 12 19 29.97 1015 10 16 N/A
3:15 am 03:15 Clear 67 19.7 58 14.5 72 72 S 10 17 29.97 1015 10 16 N/A
3:35 am 03:35 Clear 67 19.6 58 14.5 73 73 S 8 13 29.98 1015 10 16 N/A
3:55 am 03:55 Clear 67 19.5 58 14.6 73 73 S 8 13 29.98 1015 10 16 N/A
4:15 am 04:15 Clear 67 19.2 58 14.5 74 74 S 7 11 29.98 1015 10 16 N/A
4:35 am 04:35 Clear 66 19.1 58 14.5 75 75 S 9 15 29.97 1015 10 16 N/A
4:55 am 04:55 Clear 66 18.8 58 14.5 76 76 S 8 13 29.97 1015 10 16 N/A
5:15 am 05:15 Clear 66 18.8 58 14.5 76 76 S 9 15 29.97 1015 10 16 N/A
5:35 am 05:35 Clear 66 18.8 58 14.6 77 77 S 8 13 29.97 1015 10 16 N/A
5:55 am 05:55 Clear 65 18.6 58 14.6 78 78 S 5 7 29.98 1015 10 16 N/A
6:15 am 06:15 Clear 65 18.5 58 14.6 78 78 SSE 7 11 29.98 1015 10 16 N/A
6:35 am 06:35 Sunny 66 18.7 58 14.6 77 77 SSE 7 11 29.98 1015 7 11 N/A
6:55 am 06:55 Sunny 65 18.6 58 14.7 78 78 SSE 8 13 29.98 1015 7 11 N/A
7:15 am 07:15 Sunny 67 19.2 59 14.8 76 76 SSE 7 11 29.98 1015 7 11 N/A
7:35 am 07:35 Sunny 67 19.5 59 15 75 75 SSE 7 11 29.98 1015 10 16 N/A
7:55 am 07:55 Sunny 68 20 59 15.2 74 74 SSE 3 6 29.98 1015 7 11 N/A
8:15 am 08:15 Sunny 69 20.8 60 15.6 72 72 SSE 8 13 29.98 1015 10 16 N/A
8:35 am 08:35 Sunny 70 21.2 60 15.5 70 70 SSE 8 13 29.97 1015 10 16 N/A
8:55 am 08:55 Sunny 72 22 61 15.9 68 68 S 6 9 29.96 1015 10 16 N/A
9:15 am 09:15 Sunny 72 22.3 61 16 68 68 S 7 11 29.96 1015 10 16 N/A
9:35 am 09:35 Sunny 73 23 62 16.4 66 66 S 6 9 29.96 1014 10 16 N/A
9:55 am 09:55 Sunny 75 23.7 62 16.7 65 65 S 7 11 29.95 1014 10 16 N/A
10:15 am 10:15 Sunny 76 24.4 62 16.8 63 63 S 10 17 29.94 1014 10 16 N/A
10:35 am 10:35 Sunny 77 24.8 62 16.8 61 61 S 9 15 29.93 1014 10 16 N/A
10:55 am 10:55 Sunny 79 26.1 63 17.4 59 59 S 9 15 29.92 1013 10 16 N/A
11:15 am 11:15 Sunny 80 26.6 63 17.2 56 56 SSW 13 20 29.92 1013 10 16 N/A
11:35 am 11:35 Sunny 81 27.4 64 17.6 55 55 SSW 13 20 29.91 1013 10 16 N/A
11:55 am 11:55 Sunny 82 28 64 17.8 54 54 SSW 12 19 29.90 1013 10 16 N/A
12:15 pm 12:15 Sunny 83 28.5 65 18.1 53 53 S 12 19 29.90 1013 10 16 N/A
12:35 pm 12:35 Sunny 85 29.3 64 18 51 51 S 13 20 29.89 1012 10 16 N/A
12:55 pm 12:55 Sunny 85 29.7 65 18.2 50 50 S 13 20 29.88 1012 10 16 N/A
1:15 pm 13:15 Sunny 86 30.2 65 18.2 49 49 S 13 20 29.88 1012 10 16 N/A
1:35 pm 13:35 Sunny 87 30.8 65 18.6 48 48 S 14 22 29.86 1011 10 16 N/A
1:55 pm 13:55 Sunny 88 31 64 18 46 46 S 10 17 29.86 1011 10 16 N/A
2:15 pm 14:15 Sunny 88 31.1 67 19.5 50 50 SSE 14 22 29.86 1011 10 16 N/A
2:35 pm 14:35 Sunny 89 31.8 67 19.6 48 48 SSE 13 20 29.85 1011 10 16 N/A
2:55 pm 14:55 Sunny 89 31.5 67 19.3 48 48 SSE 14 22 29.85 1011 10 16 N/A
3:15 pm 15:15 Sunny 89 31.8 67 19.3 47 47 SSE 14 22 29.84 1011 10 16 N/A
3:35 pm 15:35 Sunny 90 32.1 67 19.4 47 47 SE 15 24 29.83 1010 10 16 N/A
3:55 pm 15:55 Sunny 90 32.3 66 19.1 46 46 SSE 15 24 29.83 1010 10 16 N/A
4:15 pm 16:15 Sunny 90 32.4 67 19.6 47 47 SE 13 20 29.82 1010 10 16 N/A
4:35 pm 16:35 Sunny 90 32.4 67 19.7 47 47 SSE 15 24 29.82 1010 10 16 N/A
4:55 pm 16:55 Sunny 91 32.5 66 19 45 45 SSE 16 26 29.81 1009 10 16 N/A
5:15 pm 17:15 Sunny 90 32.4 66 18.8 44 44 SSE 13 20 29.81 1009 10 16 N/A
5:35 pm 17:35 Sunny 91 32.5 67 19.2 45 45 SSE 14 22 29.80 1009 10 16 N/A
5:55 pm 17:55 Sunny 90 32.2 66 18.9 45 45 SSE 16 26 29.80 1009 10 16 N/A
6:15 pm 18:15 Sunny 90 32.1 66 19.1 46 46 SSE 13 20 29.79 1009 10 16 N/A
6:35 pm 18:35 Sunny 89 31.7 67 19.2 47 47 SSE 14 22 29.80 1009 10 16 N/A
6:55 pm 18:55 Sunny 88 31.2 67 19.5 50 50 SSE 12 19 29.80 1009 10 16 N/A
7:15 pm 19:15 Sunny 87 30.6 66 19.1 50 50 SSE 13 20 29.79 1009 10 16 N/A
7:35 pm 19:35 Sunny 86 30.1 67 19.2 52 52 SSE 12 19 29.80 1009 10 16 N/A
7:55 pm 19:55 Sunny 85 29.5 66 19 53 53 SSE 10 17 29.80 1009 10 16 N/A
8:15 pm 20:15 Sunny 83 28.6 66 18.7 55 55 SSE 12 19 29.81 1009 10 16 N/A
8:35 pm 20:35 Sunny 82 27.8 65 18.5 57 57 SSE 9 15 29.83 1010 10 16 N/A
8:55 pm 20:55 Sunny 80 26.9 65 18.1 59 59 SSE 9 15 29.83 1010 10 16 N/A
9:15 pm 21:15 Clear 78 25.7 65 18.2 63 63 SSE 8 13 29.84 1011 10 16 N/A
9:35 pm 21:35 Clear 77 25.1 65 18.1 65 65 SSE 8 13 29.85 1011 10 16 N/A
9:55 pm 21:55 Clear 76 24.2 65 18.2 69 69 SSE 7 11 29.87 1011 10 16 N/A
10:15 pm 22:15 Clear 74 23.5 65 18.3 73 73 SSE 7 11 29.88 1012 10 16 N/A
10:35 pm 22:35 Clear 74 23.2 65 18.1 73 73 SSE 6 9 29.89 1012 10 16 N/A
10:55 pm 22:55 Clear 73 23 64 18 74 74 SSE 8 13 29.90 1012 10 16 N/A
11:15 pm 23:15 Clear 74 23.2 64 17.6 71 71 SSE 9 15 29.89 1012 10 16 N/A
11:35 pm 23:35 Clear 74 23.4 63 17 67 67 SSE 9 15 29.90 1013 10 16 N/A
11:55 pm 23:55 Clear 74 23.4 62 16.6 66 66 SSE 9 15 29.90 1013 10 16 N/A

Powered by AerisWeather